This demonstration page uses our WeatherBlox Daily Observations layout. Learn more.

Left ArrowRight Arrow

Hourly Observations for November 23, 2020

Temp ( °F °C ) Dew Point ( °F °C ) Humidity (%) Winds ( mph kmh ) Pressure ( in mb ) Visibility ( mi km ) Precip ( " mm )
12:51 am 00:51 Clear 62 16.7 45 7.2 54 54 E 8 13 29.83 1010 10 16 0.00 0.00
1:51 am 01:51 Clear 57 13.9 44 6.7 62 62 S 8 13 29.83 1010 10 16 0.00 0.00
2:51 am 02:51 Clear 56 13.3 45 7.2 67 67 SSE 8 13 29.83 1010 10 16 0.00 0.00
3:51 am 03:51 Clear 56 13.3 45 7.2 67 67 SSE 9 15 29.83 1010 10 16 0.00 0.00
4:51 am 04:51 Clear 55 12.8 45 7.2 69 69 SSE 8 13 29.82 1010 10 16 0.00 0.00
5:51 am 05:51 Clear 54 12.2 46 7.8 75 75 ESE 9 15 29.83 1010 10 16 0.00 0.00
6:51 am 06:51 Clear 53 11.7 45 7.2 74 74 ESE 7 11 29.84 1011 10 16 0.00 0.00
7:51 am 07:51 Sunny 55 12.8 46 7.8 72 72 ESE 8 13 29.85 1011 10 16 0.00 0.00
8:51 am 08:51 Sunny 58 14.4 47 8.3 67 67 SSE 10 17 29.85 1011 10 16 0.00 0.00
9:51 am 09:51 Sunny 62 16.7 47 8.3 58 58 SSE 8 13 29.83 1010 10 16 0.00 0.00
10:51 am 10:51 Sunny 65 18.3 47 8.3 52 52 S 3 6 29.80 1009 10 16 0.00 0.00
11:51 am 11:51 Sunny 70 21.1 46 7.8 42 42 SE 7 11 29.75 1008 10 16 0.00 0.00
12:51 pm 12:51 Sunny 73 22.8 44 6.7 35 35 VRB 5 7 29.70 1006 10 16 0.00 0.00
1:51 pm 13:51 Sunny 76 24.4 41 5 29 29 VRB 5 7 29.67 1005 10 16 0.00 0.00
2:51 pm 14:51 Sunny 77 25 38 3.3 24 24 NW 7 11 29.65 1004 10 16 0.00 0.00
3:51 pm 15:51 Sunny 75 23.9 34 1.1 22 22 WNW 5 7 29.65 1004 10 16 0.00 0.00
4:51 pm 16:51 Sunny 73 22.8 36 2.2 26 26 WNW 10 17 29.65 1004 10 16 0.00 0.00
5:51 pm 17:51 Clear 70 21.1 37 2.8 30 30 WNW 14 22 29.67 1005 10 16 0.00 0.00
6:51 pm 18:51 Clear 68 20 37 2.8 32 32 WNW 13 20 29.69 1005 10 16 0.00 0.00
7:51 pm 19:51 Clear 66 18.9 37 2.8 34 34 WNW 14 22 29.69 1005 10 16 0.00 0.00
8:51 pm 20:51 Clear 64 17.8 36 2.2 35 35 NW 15 24 29.71 1006 10 16 0.00 0.00
9:51 pm 21:51 Clear 64 17.8 32 0 30 30 NW 16 26 29.70 1006 10 16 0.00 0.00
10:51 pm 22:51 Clear 62 16.7 30 -1.1 30 30 NW 18 30 29.70 1006 10 16 0.00 0.00
11:51 pm 23:51 Clear with Light Rain 62 16.7 29 -1.7 29 29 NW 21 33 29.70 1006 10 16 0.00 0.00

Powered by AerisWeather